[[{"header":{"parameterUnit":"m.s-1","parameterCategory":1,"la1":30.2991,"la2":30.254,"lo1":-89.0895,"lo2":-89.0444,"dy":0.0017,"dx":0.0017,"nx":28,"ny":28,"refTime":"2025-06-05T09:00:00:Z","depth":0,"parameterNumber":2,"parameterNumberName":"U-component_of_WINDS"},"data":[0,0,0,0,0,0,0,0,0,0,0,0,0,0,0,0,0,0,0,0,0,0,0,0,0,0,0,0,0,0,0,0,0,0,0,0,0,0,0,0,0,0,0,0,0,0,0,0,0,0,0,0,0,0,0,0,0,0,5.2891,5.2892,0,5.3011,5.3012,5.3014,5.2959,5.2956,5.2953,5.295,5.3072,5.3078,5.3084,0,0,0,0,0,0,0,0,0,0,0,0,0,5.2612,5.2617,5.2891,5.2892,5.2894,5.3011,5.3012,5.3014,5.296,5.2956,5.2952,5.2949,5.307,5.3077,5.3084,0,0,0,0,0,0,0,0,0,0,0,0,0,5.2732,5.2619,5.2891,5.2881,5.2881,5.301,5.3012,5.3014,5.296,5.2956,5.2951,5.2947,5.3068,5.3077,5.3085,5.3231,0,0,5.3113,5.3117,0,0,0,0,0,0,0,0,5.2726,5.2743,5.2881,5.2882,5.2882,5.2965,5.2958,5.3087,5.2961,5.293,5.295,5.2945,5.304,5.3051,5.3084,5.3237,5.3242,5.3114,5.3119,5.3123,5.3126,0,0,0,0,0,0,0,5.2717,5.2737,5.2938,5.2883,5.2884,5.2869,5.2882,5.2983,5.3009,5.2933,5.2929,5.2944,5.304,5.3075,5.3086,5.3244,5.3114,5.3122,5.3127,5.3131,5.3517,5.3522,0,0,0,0,0,0,5.2709,5.2731,5.2935,5.2942,5.2791,5.2878,5.2892,5.2943,5.3008,5.3013,5.2948,5.2941,5.3062,5.3075,5.309,5.3261,5.3123,5.3132,5.3137,5.3513,5.3518,5.3524,0,0,0,0,0,0,5.2704,5.2728,5.293,5.2835,5.286,5.2888,5.2946,5.2948,5.2983,5.3019,5.3023,5.2979,5.3059,5.3077,5.3195,5.3264,5.3136,5.3144,5.3507,5.3514,5.3521,5.3605,0,0,0,0,0,0,5.2696,5.2726,5.2783,5.2837,5.2865,5.3034,5.295,5.2954,5.2999,5.2991,5.3049,5.3055,5.3057,5.3182,5.3204,5.3274,5.3151,5.3501,5.351,5.3519,5.3596,5.3615,5.363,0,0,0,0,0,5.2686,5.2803,5.2786,5.2811,5.2936,5.3038,5.3054,5.3054,5.3005,5.3061,5.3083,5.3053,5.3254,5.3195,5.3219,5.3293,5.3496,5.3508,5.3518,5.3589,5.3611,5.363,0,0,0,0,0,0,5.2756,5.281,5.2792,5.2929,5.298,5.3029,5.3099,5.3078,5.3143,5.3133,5.3131,5.3144,5.3265,5.3292,5.3225,5.3435,5.3367,5.3384,5.3413,5.3434,5.3451,5.344,5.3159,0,0,0,0,0,5.2787,5.2866,5.2909,5.3026,5.3052,5.3072,5.3116,5.3112,5.3163,5.3184,5.3216,5.3267,5.334,5.3389,5.346,5.3601,5.3611,5.3664,5.3681,5.3694,5.3707,5.3779,5.3802,5.356,5.3559,5.3559,0,0,5.2853,5.2892,5.2942,5.3041,5.3079,5.3159,5.309,5.3179,5.3237,5.3198,5.3309,5.3335,5.3391,5.352,5.3578,5.3545,5.3777,5.3708,5.3719,5.3724,5.3793,5.3816,5.3836,5.3567,5.3566,5.3564,0,0,5.3012,5.3052,5.3151,5.3191,5.325,5.3262,5.3286,5.3338,5.3353,5.3465,5.3436,5.3506,5.3635,5.3675,5.3712,5.3885,5.3857,5.3908,5.3994,5.4065,5.4084,5.41,5.4158,5.4179,5.3922,5.3922,5.3922,0,5.3086,5.3206,5.3205,5.3295,5.3338,5.3306,5.3405,5.3444,5.3523,5.3552,5.3515,5.3673,5.371,5.3845,5.3887,5.392,5.3945,5.39,5.4081,5.4098,5.4114,5.4168,5.419,5.3927,5.3927,5.3926,5.3926,0,5.3291,5.3375,5.3449,5.3524,5.3576,5.367,5.3682,5.3735,5.3726,5.3741,5.3854,5.3897,5.3973,5.4006,5.3999,5.414,5.4117,5.4081,5.4012,5.4142,5.4193,5.4214,5.3935,5.3933,5.3932,5.393,0,0,5.3496,5.357,5.3596,5.3628,5.369,5.3754,5.3847,5.3921,5.3964,5.402,5.4094,5.4203,5.4169,5.4212,5.4209,5.4271,5.4399,5.4227,5.4228,5.4253,5.4552,5.4575,5.46,5.4383,5.4387,5.4391,5.4546,0,5.3656,5.3817,5.3819,5.3966,5.4041,5.4011,5.4091,5.4137,5.4154,5.4219,5.4237,5.4313,5.4265,5.4289,5.435,5.4371,5.4458,5.436,5.4449,5.4453,5.4432,5.4627,5.4653,5.4797,5.4566,5.4569,5.4572,0,5.3864,5.3925,5.408,5.4127,5.4159,5.4231,5.4297,5.4361,5.4411,5.4419,5.4465,5.4452,5.4544,5.4475,5.4599,5.4532,5.4569,5.4585,5.459,5.4595,5.4517,5.4633,5.4844,5.4863,5.4604,5.4602,5.4599,0,5.3992,5.4113,5.422,5.425,5.4309,5.436,5.4387,5.4433,5.4476,5.4535,5.4563,5.4632,5.4668,5.4721,5.4726,5.4677,5.485,5.4782,5.4855,5.4855,5.489,5.4887,5.5105,5.4922,5.4921,5.4921,5.492,0,5.4168,5.4263,5.4278,5.4343,5.4447,5.4448,5.4551,5.4574,5.4614,5.4682,5.4663,5.4726,5.4731,5.4796,5.4801,5.49,5.4919,5.4925,5.4924,5.4924,5.4923,5.4945,5.4934,5.4927,5.4925,5.4924,5.4923,0,5.4327,5.4342,5.4455,5.4502,5.4516,5.4591,5.463,5.4691,5.4706,5.4792,5.4812,5.4835,5.491,5.4921,5.5011,5.5014,5.5131,5.5123,5.5114,5.5111,5.5181,5.5173,5.5418,5.5448,5.5249,5.5251,5.5253,0,5.4436,5.4508,5.4562,5.4606,5.4635,5.4707,5.4751,5.4754,5.4801,5.4862,5.4915,5.4989,5.5047,5.5168,5.5192,5.5259,5.5249,5.533,5.5259,5.5255,5.5244,5.5238,5.5243,5.5343,5.5345,5.5347,5.5348,0,5.4626,5.463,5.4694,5.4761,5.4813,5.4866,5.4916,5.4953,5.4962,5.5015,5.5091,5.5137,5.5226,5.5298,5.5364,5.539,5.537,5.5371,5.539,5.5389,5.5378,5.538,5.5146,5.5364,5.5363,5.5361,5.5361,5.536,5.476,5.4821,5.4868,5.4939,5.4977,5.5023,5.5082,5.5104,5.5168,5.524,5.5239,5.5322,5.5368,5.5454,5.5485,5.5549,5.5522,5.5552,5.5558,5.5564,5.5569,5.5372,5.5561,5.5561,5.5561,5.556,5.556,0,5.4945,5.4974,5.504,5.5109,5.5164,5.5142,5.5195,5.5242,5.5315,5.5361,5.5418,5.5504,5.5573,5.5602,5.5669,5.5715,5.5706,5.5732,5.5726,5.5731,5.5591,5.5565,5.5737,5.5737,5.5737,5.5737,5.5737,5.5737,5.5048,5.5148,5.5156,5.5274,5.5302,5.5382,5.5414,5.5455,5.5491,5.5588,5.5645,5.5664,5.5701,5.5771,5.5832,5.5839,5.5862,5.5891,5.5892,5.576,5.5742,5.5725,5.57,5.5897,5.5897,5.6027,5.6028,5.6029]},{"header":{"parameterUnit":"m.s-1","parameterCategory":1,"la1":30.2991,"la2":30.254,"lo1":-89.0895,"lo2":-89.0444,"dy":0.0017,"dx":0.0017,"nx":28,"ny":28,"refTime":"2025-06-05T09:00:00:Z","depth":0,"parameterNumber":3,"parameterNumberName":"V-component_of_WINDS"},"data":[0,0,0,0,0,0,0,0,0,0,0,0,0,0,0,0,0,0,0,0,0,0,0,0,0,0,0,0,0,0,0,0,0,0,0,0,0,0,0,0,0,0,0,0,0,0,0,0,0,0,0,0,0,0,0,0,0,0,4.383,4.3831,0,4.3976,4.3978,4.3979,4.3956,4.3953,4.3951,4.3948,4.4096,4.4102,4.4108,0,0,0,0,0,0,0,0,0,0,0,0,0,4.3526,4.3532,4.383,4.3832,4.3833,4.3976,4.3978,4.398,4.3956,4.3953,4.395,4.3947,4.4094,4.4101,4.4109,0,0,0,0,0,0,0,0,0,0,0,0,0,4.3664,4.3534,4.3829,4.3839,4.3841,4.3975,4.3978,4.398,4.3957,4.3953,4.3949,4.3946,4.4091,4.41,4.411,4.4243,0,0,4.4138,4.4143,0,0,0,0,0,0,0,0,4.3656,4.3675,4.3836,4.3838,4.3841,4.3944,4.3925,4.4068,4.3958,4.3913,4.3948,4.3944,4.4048,4.4061,4.4097,4.425,4.4256,4.4139,4.4145,4.4149,4.4152,0,0,0,0,0,0,0,4.3647,4.3669,4.3888,4.3838,4.3841,4.3835,4.385,4.3952,4.4,4.3917,4.3915,4.3933,4.4049,4.4088,4.41,4.4259,4.4139,4.4147,4.4153,4.4157,4.4527,4.4531,0,0,0,0,0,0,4.3635,4.3661,4.3883,4.3892,4.3738,4.3843,4.386,4.3915,4.3999,4.4008,4.3936,4.3931,4.4073,4.4089,4.4105,4.4266,4.4149,4.4158,4.4163,4.4523,4.4528,4.4532,0,0,0,0,0,0,4.3628,4.3655,4.3877,4.3776,4.3804,4.3852,4.3914,4.392,4.3958,4.4013,4.4021,4.3967,4.4071,4.4092,4.4209,4.427,4.4162,4.4171,4.4518,4.4524,4.453,4.4588,0,0,0,0,0,0,4.362,4.3653,4.3705,4.3778,4.3809,4.398,4.3918,4.3925,4.3975,4.397,4.4045,4.4053,4.407,4.4195,4.4218,4.4281,4.4178,4.4512,4.452,4.4528,4.4581,4.4596,4.4609,0,0,0,0,0,4.3609,4.3716,4.3708,4.3735,4.3876,4.3983,4.4001,4.4019,4.398,4.4032,4.4067,4.4051,4.426,4.4207,4.4233,4.43,4.4508,4.4518,4.4527,4.4575,4.4593,4.4608,0,0,0,0,0,0,4.3649,4.3725,4.3718,4.3851,4.3911,4.3979,4.4046,4.4038,4.4109,4.4102,4.4119,4.4136,4.4255,4.4289,4.4229,4.4432,4.4378,4.4394,4.4406,4.4423,4.4437,4.4426,4.4186,0,0,0,0,0,4.3673,4.3755,4.3817,4.3929,4.3959,4.3997,4.4045,4.4053,4.4115,4.414,4.4184,4.4245,4.4323,4.4375,4.4451,4.4586,4.4601,4.4644,4.4658,4.4669,4.4682,4.4754,4.4773,4.4563,4.4563,4.4563,0,0,4.3724,4.3776,4.3827,4.3938,4.3985,4.4068,4.4019,4.4109,4.4171,4.4154,4.4267,4.4301,4.4369,4.4495,4.4553,4.4528,4.4743,4.4681,4.4689,4.4696,4.4765,4.4785,4.4803,4.4569,4.4568,4.4567,0,0,4.3859,4.3907,4.4005,4.4053,4.4126,4.415,4.4173,4.4243,4.4265,4.4379,4.4368,4.444,4.4576,4.4625,4.4668,4.482,4.4807,4.4844,4.4915,4.4985,4.5002,4.5016,4.5069,4.5088,4.4856,4.4856,4.4857,0,4.3913,4.4039,4.4056,4.4148,4.4196,4.4185,4.4283,4.4328,4.4422,4.4455,4.4425,4.4595,4.464,4.4776,4.4813,4.4849,4.4875,4.4835,4.4998,4.5013,4.5027,4.5078,4.5098,4.486,4.486,4.4859,4.4859,0,4.4101,4.4189,4.4258,4.4349,4.4405,4.45,4.4529,4.4584,4.4587,4.4614,4.4729,4.4783,4.4868,4.4901,4.4905,4.5038,4.502,4.4994,4.494,4.5051,4.5099,4.5118,4.4866,4.4865,4.4863,4.4862,0,0,4.4267,4.4364,4.439,4.443,4.4508,4.4575,4.4668,4.4753,4.4799,4.4863,4.494,4.5055,4.5031,4.5079,4.5088,4.5149,4.5264,4.5116,4.5118,4.5141,4.5413,4.5431,4.5454,4.5256,4.526,4.5263,4.5407,0,4.4409,4.4574,4.4591,4.4738,4.4818,4.4807,4.4888,4.4944,4.4971,4.5042,4.5071,4.5152,4.5115,4.5144,4.5204,4.5238,4.5319,4.5228,4.5327,4.5331,4.531,4.5479,4.55,4.5633,4.5426,4.5429,4.5431,0,4.4597,4.4667,4.4822,4.4887,4.4921,4.4994,4.5072,4.514,4.5202,4.5218,4.5271,4.5271,4.5365,4.5307,4.5436,4.5373,4.5415,4.5437,4.5443,4.5453,4.5388,4.5493,4.5676,4.5695,4.5461,4.5459,4.5457,0,4.4701,4.4833,4.4943,4.4978,4.5057,4.5108,4.5143,4.5202,4.5251,4.5319,4.5351,4.5428,4.547,4.553,4.555,4.5506,4.5677,4.5622,4.5692,4.5691,4.5728,4.5726,4.592,4.5756,4.5756,4.5755,4.5755,0,4.4857,4.4952,4.499,4.5058,4.5163,4.5181,4.5284,4.5317,4.5369,4.5442,4.5437,4.5505,4.5528,4.5599,4.5615,4.5719,4.5738,4.5752,4.5755,4.5752,4.575,4.578,4.5771,4.576,4.5759,4.5758,4.5757,0,4.4991,4.5021,4.5139,4.5205,4.5223,4.5298,4.5353,4.5417,4.5443,4.5535,4.5557,4.5597,4.5681,4.5707,4.5807,4.5818,4.5939,4.5934,4.5918,4.5918,4.5987,4.5979,4.6206,4.6236,4.6053,4.6054,4.6056,0,4.5089,4.5162,4.5235,4.5283,4.5321,4.5399,4.5449,4.5468,4.552,4.5596,4.5651,4.5734,4.5801,4.5934,4.5972,4.6048,4.6045,4.6119,4.6056,4.605,4.6045,4.604,4.6047,4.613,4.6132,4.6134,4.6135,0,4.5259,4.527,4.5343,4.542,4.548,4.5542,4.5602,4.5641,4.5669,4.5728,4.5813,4.5865,4.5968,4.6049,4.6127,4.6161,4.6153,4.6154,4.6174,4.6172,4.616,4.6167,4.595,4.6149,4.6148,4.6147,4.6146,4.6145,4.5378,4.5442,4.5503,4.5583,4.563,4.5686,4.5749,4.5782,4.5854,4.5939,4.5946,4.6038,4.6097,4.62,4.6239,4.631,4.6288,4.6318,4.6325,4.6332,4.6337,4.6149,4.6324,4.6324,4.6323,4.6323,4.6323,0,4.5547,4.5586,4.566,4.5743,4.5806,4.5793,4.5858,4.5911,4.5992,4.6048,4.6114,4.6211,4.629,4.6333,4.6412,4.646,4.6458,4.648,4.6476,4.6484,4.6352,4.6327,4.648,4.648,4.648,4.648,4.648,4.648,4.5643,4.5749,4.5767,4.5896,4.5933,4.6024,4.6062,4.6113,4.6157,4.6266,4.6332,4.636,4.641,4.6492,4.6563,4.6573,4.6602,4.6626,4.6634,4.651,4.6494,4.6478,4.6454,4.6632,4.6633,4.676,4.6761,4.6762]}]]